CLUSTER II-FM8 (TANGO)

Last updated on June 19, 2021, 11:39 a.m. UTC

1 26464U 00045B   21171.99872971  .00000614  00000-0  00000-0 0  9996
2 26464 132.8297 344.5361 4915179 192.0918 359.5499  0.44217033 12223
UTC
Height (km)
Latitude
Longitude
Inclination
Orbital Period
UTC large
Height (km)
Speed (km/s)
/
Latitude / Longitude
Inclination (degrees)
Orbital Period (minutes)
Azimuth
Elevation
Range (km)
Doppler Factor
iOS Compass Heading
iOS Angle

Next 30 passes for location: Hong Kong

Rise time Rise Azimuth (degrees) Set time Set Azimuth (degrees) Duration Max altitude (degrees)

No matching passes for this satellites